sat.trackr.live / text

‹ back to catalog

STARLINK-4044

NORAD 52662 · 2022-053G

PAYLOAD ACTIVE UNKNOWN

§ Identity

Operator
Country
US
Launch date
2022-05-18
Launch site
AFETR
Launch vehicle
Mass (kg)
RCS (m²)

Purposes: comms

External: N2YO · Heavens-Above · Gunter

§ Orbital elements

Epoch: 2026-05-25T01:13:53.120928Z

Period
95.44 min
Inclination
53.2122°
Eccentricity
0.0001142
Mean motion
15.08839256 rev/d
Perigee alt
539.0 km
Apogee alt
540.5 km
Semi-major
6,917.9 km
B*
1.4966e-5
RAAN
171.3214°
Arg perigee
73.5036°
Mean anomaly
286.6081°
Rev number
22,257

§ Raw data

STARLINK-40441 52662U 22053G   26145.05130927 -.00000050  00000+0  14966-4 0  99932 52662  53.2122 171.3214 0001142  73.5036 286.6081 15.08839256222575

JSON: /api/v1/satellites/52662 · /tle

For live sub-satellite position, see the globe view (requires WebGL).

§ Visibility from observer

Set your observer location to see the next 7 days of passes ≥ 10°. The values pass through the URL so the page stays shareable.

No JS? Fill the form by hand. The geolocation button needs JavaScript.